Time,TemperatureF,DewpointF,PressureIn,WindDirection,WindDirectionDegrees,WindSpeedMPH,WindSpeedGustMPH,Humidity,HourlyPrecipIn,Conditions,Clouds,dailyrainin,SoftwareType,DateUTC
2013-11-08 00:06:00,71.6,70.0,29.95,NE,51,0.0,1.0,93,0.00,,,0.00,weatherlink.com 1.10,2013-11-08 05:06:00,
2013-11-08 00:21:00,71.3,69.0,29.94,ESE,108,0.0,0.0,93,0.00,,,0.00,weatherlink.com 1.10,2013-11-08 05:21:00,
2013-11-08 00:36:00,71.2,69.0,29.94,ENE,78,0.0,1.0,94,0.00,,,0.00,weatherlink.com 1.10,2013-11-08 05:36:00,
2013-11-08 00:51:00,71.1,69.0,29.94,East,94,0.0,1.0,94,0.00,,,0.00,weatherlink.com 1.10,2013-11-08 05:51:00,
2013-11-08 01:06:00,70.7,69.0,29.94,East,91,0.0,1.0,94,0.00,,,0.00,weatherlink.com 1.10,2013-11-08 06:06:00,
2013-11-08 01:22:00,70.5,69.0,29.93,NNE,15,0.0,1.0,94,0.00,,,0.00,weatherlink.com 1.10,2013-11-08 06:22:00,
2013-11-08 01:37:00,70.3,69.0,29.93,NNW,330,0.0,1.0,95,0.00,,,0.00,weatherlink.com 1.10,2013-11-08 06:37:00,
2013-11-08 01:52:00,70.0,69.0,29.93,East,99,0.0,1.0,95,0.00,,,0.00,weatherlink.com 1.10,2013-11-08 06:52:00,
2013-11-08 02:07:00,69.9,69.0,29.93,East,96,0.0,1.0,96,0.00,,,0.00,weatherlink.com 1.10,2013-11-08 07:07:00,
2013-11-08 02:22:00,69.7,69.0,29.93,East,93,1.0,2.0,96,0.00,,,0.00,weatherlink.com 1.10,2013-11-08 07:22:00,
2013-11-08 02:37:00,69.9,69.0,29.93,WNW,300,0.0,1.0,96,0.00,,,0.00,weatherlink.com 1.10,2013-11-08 07:37:00,
2013-11-08 02:52:00,70.0,69.0,29.92,WNW,295,0.0,2.0,96,0.00,,,0.00,weatherlink.com 1.10,2013-11-08 07:52:00,
2013-11-08 03:07:00,70.1,69.0,29.92,NE,56,0.0,2.0,95,0.00,,,0.00,weatherlink.com 1.10,2013-11-08 08:07:00,
2013-11-08 03:22:00,70.2,69.0,29.92,NW,306,0.0,2.0,95,0.00,,,0.00,weatherlink.com 1.10,2013-11-08 08:22:00,
2013-11-08 03:37:00,70.3,69.0,29.92,ENE,71,0.0,1.0,95,0.00,,,0.00,weatherlink.com 1.10,2013-11-08 08:37:00,
2013-11-08 03:52:00,70.4,69.0,29.93,ENE,58,0.0,1.0,95,0.00,,,0.00,weatherlink.com 1.10,2013-11-08 08:52:00,
2013-11-08 04:07:00,70.6,69.0,29.93,ESE,105,0.0,2.0,95,0.00,,,0.00,weatherlink.com 1.10,2013-11-08 09:07:00,
2013-11-08 04:22:00,70.6,69.0,29.93,NNW,340,0.0,1.0,94,0.00,,,0.00,weatherlink.com 1.10,2013-11-08 09:22:00,
2013-11-08 04:37:00,70.9,69.0,29.93,WNW,284,0.0,0.0,94,0.00,,,0.00,weatherlink.com 1.10,2013-11-08 09:37:00,
2013-11-08 04:52:00,71.1,69.0,29.93,NW,305,0.0,1.0,94,0.00,,,0.00,weatherlink.com 1.10,2013-11-08 09:52:00,
2013-11-08 05:07:00,71.3,70.0,29.94,NNW,345,0.0,2.0,94,0.00,,,0.00,weatherlink.com 1.10,2013-11-08 10:07:00,
2013-11-08 05:22:00,71.2,69.0,29.94,ESE,106,0.0,1.0,94,0.00,,,0.00,weatherlink.com 1.10,2013-11-08 10:22:00,
2013-11-08 05:37:00,70.9,69.0,29.95,East,91,0.0,1.0,94,0.00,,,0.00,weatherlink.com 1.10,2013-11-08 10:37:00,
2013-11-08 05:52:00,70.8,69.0,29.95,NE,41,0.0,2.0,94,0.00,,,0.00,weatherlink.com 1.10,2013-11-08 10:52:00,
2013-11-08 06:07:00,70.9,70.0,29.95,NW,306,0.0,1.0,95,0.00,,,0.00,weatherlink.com 1.10,2013-11-08 11:07:00,
2013-11-08 06:22:00,71.0,70.0,29.95,WNW,301,0.0,1.0,95,0.00,,,0.00,weatherlink.com 1.10,2013-11-08 11:22:00,
2013-11-08 06:37:00,71.0,70.0,29.96,NNE,28,0.0,3.0,95,0.00,,,0.00,weatherlink.com 1.10,2013-11-08 11:37:00,
2013-11-08 06:52:00,71.0,70.0,29.96,NE,46,0.0,1.0,95,0.00,,,0.00,weatherlink.com 1.10,2013-11-08 11:52:00,
2013-11-08 07:07:00,71.1,70.0,29.97,NE,41,0.0,1.0,95,0.00,,,0.00,weatherlink.com 1.10,2013-11-08 12:07:00,
2013-11-08 07:22:00,71.3,70.0,29.97,ENE,58,0.0,2.0,95,0.00,,,0.00,weatherlink.com 1.10,2013-11-08 12:22:00,
2013-11-08 07:37:00,71.4,70.0,29.98,ENE,68,0.0,2.0,94,0.00,,,0.00,weatherlink.com 1.10,2013-11-08 12:37:00,
2013-11-08 07:52:00,71.8,70.0,29.98,East,97,0.0,2.0,94,0.00,,,0.00,weatherlink.com 1.10,2013-11-08 12:52:00,
2013-11-08 08:07:00,72.6,71.0,29.98,NE,46,0.0,3.0,94,0.00,,,0.00,weatherlink.com 1.10,2013-11-08 13:07:00,
2013-11-08 08:22:00,73.7,71.0,29.99,NE,34,0.0,2.0,92,0.00,,,0.00,weatherlink.com 1.10,2013-11-08 13:22:00,
2013-11-08 08:37:00,74.9,72.0,29.99,SE,130,0.0,1.0,90,0.00,,,0.00,weatherlink.com 1.10,2013-11-08 13:37:00,
2013-11-08 08:52:00,76.4,72.0,29.99,NE,51,2.0,3.0,86,0.00,,,0.00,weatherlink.com 1.10,2013-11-08 13:52:00,
2013-11-08 09:07:00,78.8,73.0,29.99,ENE,71,1.0,2.0,82,0.00,,,0.00,weatherlink.com 1.10,2013-11-08 14:07:00,
2013-11-08 09:22:00,80.4,73.0,29.99,East,91,0.0,3.0,77,0.00,,,0.00,weatherlink.com 1.10,2013-11-08 14:22:00,
2013-11-08 09:37:00,81.9,72.0,30.00,NE,50,1.0,3.0,73,0.00,,,0.00,weatherlink.com 1.10,2013-11-08 14:37:00,
2013-11-08 09:52:00,82.3,70.0,30.00,ENE,65,1.0,10.0,66,0.00,,,0.00,weatherlink.com 1.10,2013-11-08 14:52:00,
2013-11-08 10:07:00,83.5,70.0,30.00,NE,56,4.0,9.0,63,0.00,,,0.00,weatherlink.com 1.10,2013-11-08 15:07:00,
2013-11-08 10:22:00,83.3,70.0,29.99,NE,56,7.0,13.0,64,0.00,,,0.00,weatherlink.com 1.10,2013-11-08 15:22:00,
2013-11-08 10:38:00,83.7,69.0,29.99,East,97,3.0,9.0,62,0.00,,,0.00,weatherlink.com 1.10,2013-11-08 15:38:00,
2013-11-08 10:53:00,83.9,70.0,29.99,East,101,7.0,8.0,63,0.00,,,0.00,weatherlink.com 1.10,2013-11-08 15:53:00,
2013-11-08 11:08:00,83.6,70.0,29.98,ENE,69,3.0,9.0,63,0.00,,,0.00,weatherlink.com 1.10,2013-11-08 16:08:00,
2013-11-08 11:23:00,83.0,70.0,29.98,ESE,106,6.0,9.0,65,0.00,,,0.00,weatherlink.com 1.10,2013-11-08 16:23:00,
2013-11-08 11:38:00,84.2,71.0,29.98,ESE,113,5.0,12.0,64,0.00,,,0.00,weatherlink.com 1.10,2013-11-08 16:38:00,
2013-11-08 11:53:00,83.8,70.0,29.97,East,87,1.0,8.0,64,0.00,,,0.00,weatherlink.com 1.10,2013-11-08 16:53:00,
2013-11-08 12:23:00,83.0,71.0,29.97,ENE,70,3.0,10.0,67,0.00,,,0.00,weatherlink.com 1.10,2013-11-08 17:23:00,
2013-11-08 12:38:00,83.7,71.0,29.96,ENE,71,6.0,16.0,66,0.00,,,0.00,weatherlink.com 1.10,2013-11-08 17:38:00,
2013-11-08 12:53:00,82.9,71.0,29.96,NE,38,3.0,9.0,68,0.00,,,0.00,weatherlink.com 1.10,2013-11-08 17:53:00,
2013-11-08 13:08:00,83.1,71.0,29.95,ENE,68,7.0,15.0,67,0.00,,,0.00,weatherlink.com 1.10,2013-11-08 18:08:00,
2013-11-08 13:23:00,83.0,71.0,29.95,East,91,6.0,9.0,68,0.00,,,0.00,weatherlink.com 1.10,2013-11-08 18:23:00,
2013-11-08 13:38:00,82.9,72.0,29.94,ENE,58,5.0,9.0,70,0.00,,,0.00,weatherlink.com 1.10,2013-11-08 18:38:00,
2013-11-08 13:53:00,82.5,72.0,29.94,NE,41,2.0,9.0,71,0.00,,,0.00,weatherlink.com 1.10,2013-11-08 18:53:00,
2013-11-08 14:08:00,81.6,72.0,29.94,ENE,72,1.0,5.0,73,0.00,,,0.00,weatherlink.com 1.10,2013-11-08 19:08:00,
2013-11-08 14:23:00,81.5,73.0,29.94,ENE,60,4.0,7.0,75,0.00,,,0.00,weatherlink.com 1.10,2013-11-08 19:23:00,
2013-11-08 14:38:00,81.3,73.0,29.94,NNE,26,2.0,6.0,76,0.00,,,0.00,weatherlink.com 1.10,2013-11-08 19:38:00,
2013-11-08 14:53:00,80.5,73.0,29.95,NNE,27,3.0,7.0,78,0.00,,,0.00,weatherlink.com 1.10,2013-11-08 19:53:00,
2013-11-08 15:08:00,80.8,73.0,29.94,ENE,58,1.0,9.0,78,0.00,,,0.00,weatherlink.com 1.10,2013-11-08 20:08:00,
2013-11-08 15:23:00,79.5,73.0,29.95,NE,37,1.0,5.0,80,0.00,,,0.00,weatherlink.com 1.10,2013-11-08 20:23:00,
2013-11-08 15:38:00,80.4,73.0,29.95,East,85,8.0,8.0,78,0.00,,,0.00,weatherlink.com 1.10,2013-11-08 20:38:00,
2013-11-08 15:53:00,80.1,73.0,29.95,North,5,1.0,6.0,79,0.00,,,0.00,weatherlink.com 1.10,2013-11-08 20:53:00,
2013-11-08 16:08:00,79.7,73.0,29.95,North,3,0.0,7.0,80,0.00,,,0.00,weatherlink.com 1.10,2013-11-08 21:08:00,
2013-11-08 16:23:00,79.2,73.0,29.95,North,1,2.0,6.0,81,0.00,,,0.00,weatherlink.com 1.10,2013-11-08 21:23:00,
2013-11-08 16:38:00,78.6,73.0,29.96,NE,46,1.0,4.0,82,0.00,,,0.00,weatherlink.com 1.10,2013-11-08 21:38:00,
2013-11-08 16:53:00,78.2,72.0,29.96,East,79,1.0,7.0,82,0.00,,,0.00,weatherlink.com 1.10,2013-11-08 21:53:00,
2013-11-08 17:08:00,77.8,72.0,29.96,East,89,1.0,8.0,83,0.00,,,0.00,weatherlink.com 1.10,2013-11-08 22:08:00,
2013-11-08 17:23:00,77.5,72.0,29.96,East,85,0.0,3.0,83,0.00,,,0.00,weatherlink.com 1.10,2013-11-08 22:23:00,
2013-11-08 17:37:00,77.4,72.0,29.97,ENE,70,0.0,4.0,84,0.00,,,0.00,weatherlink.com 1.10,2013-11-08 22:37:00,
2013-11-08 17:52:00,77.1,72.0,29.97,East,96,0.0,1.0,84,0.00,,,0.00,weatherlink.com 1.10,2013-11-08 22:52:00,
2013-11-08 18:07:00,76.9,72.0,29.97,NE,42,0.0,1.0,85,0.00,,,0.00,weatherlink.com 1.10,2013-11-08 23:07:00,
2013-11-08 18:22:00,76.3,73.0,29.98,NE,34,0.0,4.0,88,0.02,,,0.02,weatherlink.com 1.10,2013-11-08 23:22:00,
2013-11-08 18:37:00,75.3,73.0,29.98,ESE,105,0.0,1.0,91,0.02,,,0.02,weatherlink.com 1.10,2013-11-08 23:37:00,
2013-11-08 18:52:00,74.9,73.0,29.99,East,94,0.0,1.0,93,0.02,,,0.02,weatherlink.com 1.10,2013-11-08 23:52:00,
2013-11-08 19:07:00,74.7,73.0,29.99,East,82,0.0,6.0,94,0.05,,,0.05,weatherlink.com 1.10,2013-11-09 00:07:00,
2013-11-08 19:22:00,74.5,73.0,30.00,NW,305,0.0,6.0,94,0.05,,,0.00,weatherlink.com 1.10,2013-11-09 00:22:00,
2013-11-08 19:37:00,74.4,73.0,30.00,NE,52,3.0,7.0,95,0.10,,,0.05,weatherlink.com 1.10,2013-11-09 00:37:00,
2013-11-08 19:52:00,74.1,73.0,30.00,NW,325,2.0,7.0,95,0.15,,,0.10,weatherlink.com 1.10,2013-11-09 00:52:00,
2013-11-08 20:07:00,74.1,73.0,30.01,ENE,60,1.0,9.0,96,0.17,,,0.16,weatherlink.com 1.10,2013-11-09 01:07:00,
2013-11-08 20:22:00,74.0,73.0,30.01,ENE,68,0.0,3.0,96,0.22,,,0.22,weatherlink.com 1.10,2013-11-09 01:22:00,
2013-11-08 20:37:00,74.1,73.0,30.01,ESE,108,0.0,1.0,96,0.19,,,0.24,weatherlink.com 1.10,2013-11-09 01:37:00,
2013-11-08 20:52:00,73.9,73.0,30.01,East,82,7.0,7.0,96,0.15,,,0.25,weatherlink.com 1.10,2013-11-09 01:52:00,
2013-11-08 21:07:00,74.4,73.0,30.01,East,83,6.0,10.0,95,0.08,,,0.25,weatherlink.com 1.10,2013-11-09 02:07:00,
2013-11-08 21:23:00,75.1,73.0,30.01,ENE,70,1.0,7.0,93,0.03,,,0.25,weatherlink.com 1.10,2013-11-09 02:23:00,
2013-11-08 21:38:00,75.6,73.0,30.01,NE,34,3.0,10.0,90,0.01,,,0.25,weatherlink.com 1.10,2013-11-09 02:38:00,
2013-11-08 21:53:00,76.1,73.0,30.01,East,82,4.0,8.0,89,0.00,,,0.25,weatherlink.com 1.10,2013-11-09 02:53:00,
2013-11-08 22:08:00,76.2,72.0,30.02,NNE,31,4.0,8.0,87,0.00,,,0.25,weatherlink.com 1.10,2013-11-09 03:08:00,
2013-11-08 22:23:00,76.6,72.0,30.01,NNE,33,1.0,9.0,86,0.00,,,0.25,weatherlink.com 1.10,2013-11-09 03:23:00,
2013-11-08 22:38:00,76.9,72.0,30.01,ENE,70,5.0,8.0,85,0.00,,,0.25,weatherlink.com 1.10,2013-11-09 03:38:00,
2013-11-08 22:53:00,77.0,73.0,30.01,NE,36,4.0,9.0,86,0.00,,,0.25,weatherlink.com 1.10,2013-11-09 03:53:00,
2013-11-08 23:08:00,77.2,72.0,30.01,ESE,123,2.0,9.0,84,0.00,,,0.25,weatherlink.com 1.10,2013-11-09 04:08:00,
2013-11-08 23:23:00,77.3,72.0,30.01,East,89,4.0,9.0,83,0.00,,,0.25,weatherlink.com 1.10,2013-11-09 04:23:00,
2013-11-08 23:38:00,77.4,72.0,30.01,ESE,114,2.0,9.0,83,0.00,,,0.25,weatherlink.com 1.10,2013-11-09 04:38:00,
2013-11-08 23:53:00,77.4,72.0,30.01,ENE,57,4.0,10.0,82,0.00,,,0.25,weatherlink.com 1.10,2013-11-09 04:53:00,